Location: Newark
(51.0500°N, 12.4500°E)
Time: 14:55:45
(UTC+00:00)

Tiros 1 - Pass Details

Date: 20 February 2020
Orbit: 630 x 664 km, 48.4° (Epoch: 08 April)

Event Time Altitude Azimuth Distance (km) Brightness Sun altitude
Rises 03:30:54 0° 244° (WSW) 2,918 - -26.3°
Reaches altitude 10° 03:33:16 10° 239° (WSW) 2,008 - -25.9°
Maximum altitude 03:37:44 50° 164° (SSE) 805 - -25.2°
Exits shadow 03:37:55 50° 155° (SSE) 808 7.6 -25.2°
Drops below altitude 10° 03:42:11 10° 89° (E) 2,010 10.7 -24.5°
Sets 03:44:33 0° 85° (E) 2,920 11.9 -24.2°
